一网星座-0085星 (ONEWEB-0085 )

导读

ONEWEB-0085是英国OneWeb低轨宽带星座的卫星,于2020年3月21日发射入轨。作为OneWeb一期组网卫星,它运行在1200公里近地轨道,单星重约147.5公斤,配备Ku和Ka波段天线,设计使用寿命约5-7年,单星通信能力约7.5Gbps,可支持高速互联网接入。它主要为电信运营商提供宽带回程服务,服务航空、海事、偏远地区联网等场景,是OneWeb实现全球宽带覆盖的重要组成部分。

基本信息
目录编号:
45438
目录名称:
ONEWEB-0085
国际标识:
2020-020Q
轨道中心:
EARTH
卫星名称:
一网星座-0085星
卫星全名:
一网星座-0085星 (ONEWEB-0085 )
卫星状态:
在轨 (已飞行2319 天)
发射日期:
2020-03-21 UTC
国别 :
英国 (GB)
星等 :
--
轨道信息
数据来源 国际轨道数据 AOE轨道数据
星历时间 2026-07-27T17:59:01+0800
12小时前
查看轨道信息
2026-07-25T09:00:00+0800
2天前
查看轨道信息
半长轴 7595.818km 7595.805km
偏心率 0.0001818 0.0001628
轨道倾角 87.890° 87.891°
近地点辐角 92.217° 91.382°
升交点赤经 13.057° 13.529°
平近点角 267.917° 225.704°
近地点 1216.3km 1216.431km
远地点 1219.062km 1218.905km
周期 109.805分钟 109.805分钟
每日圈数 13.114176 13.11421
详细信息
平衡模式:
三轴稳定
覆盖范围:
全球
运营商:
一网卫星公司
运营商所在国:
英国
制造商(研发单位):
一网卫星公司
制造商所在国:
英国
使用方式:
暂无
卫星简介
OneWeb卫星网络由648颗重约125公斤的微型卫星组成,运行在1200公里的轨道上。 每颗卫星都能够提供至少每秒8千兆位的吞吐量,以使用其高吞吐量的Ku频段有效载荷为家庭和移动平台提供互联网接入。该卫星仍在工作。
2D轨道图
3D轨道图
轨道高度分析图
轨道倾角分析图
轨道综合分析图
查看轨道综合分析图